[[{"header":{"parameterUnit":"m.s-1","parameterCategory":1,"la1":30.2991,"la2":30.254,"lo1":-89.0895,"lo2":-89.0444,"dy":0.0017,"dx":0.0017,"nx":28,"ny":28,"refTime":"2023-10-23T09:00:00:Z","depth":0,"parameterNumber":2,"parameterNumberName":"U-component_of_WINDS"},"data":[0,0,0,0,0,0,0,0,0,0,0,0,0,0,0,0,0,0,0,0,0,0,0,0,0,0,0,0,0,0,0,0,0,0,0,0,0,0,0,0,0,0,0,0,0,0,0,0,0,0,0,0,0,0,0,0,0,0,-2.6569,-2.6568,0,-2.6551,-2.6551,-2.6551,-2.6483,-2.6481,-2.648,-2.6478,-2.6462,-2.6463,-2.6464,0,0,0,0,0,0,0,0,0,0,0,0,0,-2.6546,-2.6547,-2.6569,-2.6568,-2.6568,-2.6551,-2.6551,-2.6551,-2.6483,-2.6481,-2.6479,-2.6477,-2.6462,-2.6463,-2.6464,0,0,0,0,0,0,0,0,0,0,0,0,0,-2.6545,-2.6547,-2.6569,-2.6532,-2.6529,-2.6551,-2.6551,-2.6551,-2.6483,-2.6481,-2.6479,-2.6477,-2.6461,-2.6463,-2.6464,-2.6521,0,0,-2.6469,-2.647,0,0,0,0,0,0,0,0,-2.6546,-2.6546,-2.6538,-2.6535,-2.6531,-2.6517,-2.6537,-2.6541,-2.6484,-2.6501,-2.6478,-2.6475,-2.6482,-2.6482,-2.6484,-2.6521,-2.652,-2.6469,-2.647,-2.6471,-2.6471,0,0,0,0,0,0,0,-2.6546,-2.6547,-2.6562,-2.6538,-2.6534,-2.6518,-2.6515,-2.6538,-2.6505,-2.6499,-2.6494,-2.6493,-2.648,-2.6483,-2.6483,-2.652,-2.6469,-2.6471,-2.6472,-2.6472,-2.6607,-2.6609,0,0,0,0,0,0,-2.6551,-2.6547,-2.6562,-2.6561,-2.6533,-2.652,-2.6517,-2.6524,-2.6505,-2.6499,-2.6495,-2.649,-2.6481,-2.6481,-2.6482,-2.655,-2.6471,-2.6472,-2.6473,-2.6604,-2.6607,-2.661,0,0,0,0,0,0,-2.655,-2.6553,-2.6563,-2.6553,-2.6553,-2.6523,-2.6531,-2.6525,-2.6527,-2.6501,-2.6496,-2.6503,-2.6479,-2.648,-2.6513,-2.6549,-2.6473,-2.6475,-2.6601,-2.6605,-2.6609,-2.6685,0,0,0,0,0,0,-2.655,-2.6553,-2.6573,-2.6554,-2.6554,-2.6593,-2.6533,-2.6526,-2.653,-2.6523,-2.6508,-2.6503,-2.6478,-2.6511,-2.6515,-2.6549,-2.6476,-2.6598,-2.6603,-2.6607,-2.6679,-2.6691,-2.6701,0,0,0,0,0,-2.6549,-2.6595,-2.6574,-2.6576,-2.6578,-2.6595,-2.6595,-2.6564,-2.6533,-2.6554,-2.6538,-2.6504,-2.6544,-2.6515,-2.6518,-2.6554,-2.6595,-2.6601,-2.6607,-2.6674,-2.6689,-2.6701,0,0,0,0,0,0,-2.6618,-2.6591,-2.6568,-2.6608,-2.6605,-2.6583,-2.6608,-2.658,-2.6585,-2.6578,-2.6541,-2.6538,-2.6577,-2.6569,-2.6537,-2.6611,-2.6564,-2.6571,-2.6614,-2.6628,-2.6639,-2.664,-2.6477,0,0,0,0,0,-2.6638,-2.6653,-2.6629,-2.6667,-2.6666,-2.6638,-2.6644,-2.6621,-2.6616,-2.6614,-2.66,-2.6597,-2.6609,-2.6618,-2.6628,-2.6678,-2.6676,-2.6705,-2.6716,-2.6725,-2.6732,-2.6761,-2.6775,-2.663,-2.6629,-2.6629,0,0,-2.6679,-2.6666,-2.6677,-2.668,-2.6674,-2.6693,-2.6637,-2.6657,-2.6671,-2.6617,-2.6647,-2.6638,-2.6632,-2.6675,-2.6693,-2.667,-2.6772,-2.6733,-2.674,-2.6742,-2.6769,-2.6783,-2.6795,-2.6634,-2.6633,-2.6632,0,0,-2.6762,-2.6754,-2.6785,-2.6782,-2.6774,-2.6756,-2.6764,-2.6748,-2.674,-2.677,-2.6731,-2.6748,-2.6769,-2.6767,-2.6769,-2.6858,-2.6828,-2.6862,-2.692,-2.695,-2.6961,-2.6971,-2.7005,-2.7017,-2.6869,-2.6869,-2.6869,0,-2.6814,-2.6839,-2.6805,-2.683,-2.6833,-2.6786,-2.682,-2.6818,-2.6815,-2.6819,-2.6792,-2.6821,-2.6813,-2.6857,-2.6879,-2.6882,-2.6892,-2.6864,-2.6962,-2.6972,-2.6981,-2.7013,-2.7025,-2.6874,-2.6873,-2.6873,-2.6872,0,-2.6904,-2.6922,-2.6949,-2.6948,-2.6955,-2.6983,-2.6957,-2.6968,-2.6946,-2.6931,-2.6965,-2.6955,-2.6964,-2.6972,-2.695,-2.7014,-2.7,-2.6968,-2.6921,-2.6999,-2.7029,-2.7041,-2.688,-2.6878,-2.6877,-2.6876,0,0,-2.7028,-2.7011,-2.7021,-2.7022,-2.7012,-2.7026,-2.7055,-2.7063,-2.7075,-2.7075,-2.71,-2.7121,-2.7093,-2.7095,-2.7073,-2.7099,-2.7174,-2.7065,-2.7064,-2.7087,-2.7247,-2.7272,-2.7286,-2.7154,-2.7156,-2.7157,-2.7248,0,-2.7109,-2.7155,-2.7129,-2.7179,-2.7198,-2.7156,-2.7181,-2.7179,-2.7167,-2.7182,-2.7169,-2.7186,-2.7146,-2.7148,-2.7172,-2.7159,-2.7205,-2.7152,-2.7178,-2.7179,-2.7181,-2.7301,-2.7326,-2.7412,-2.7259,-2.7261,-2.7263,0,-2.7209,-2.7215,-2.7269,-2.7259,-2.7266,-2.7288,-2.7297,-2.7311,-2.7309,-2.7299,-2.7305,-2.7277,-2.7307,-2.7261,-2.7303,-2.7268,-2.7277,-2.7273,-2.7276,-2.7277,-2.7226,-2.7307,-2.7438,-2.7452,-2.728,-2.7279,-2.7277,0,-2.7297,-2.7318,-2.7354,-2.7355,-2.7344,-2.7362,-2.7359,-2.7355,-2.7363,-2.7371,-2.7376,-2.7387,-2.7394,-2.7404,-2.7382,-2.735,-2.7428,-2.7379,-2.7423,-2.7423,-2.744,-2.744,-2.7576,-2.7445,-2.7445,-2.7445,-2.7445,0,-2.7391,-2.7425,-2.7393,-2.7415,-2.7454,-2.7424,-2.7464,-2.7456,-2.7454,-2.7475,-2.744,-2.7461,-2.743,-2.7449,-2.7432,-2.7471,-2.7473,-2.7468,-2.7463,-2.7471,-2.7472,-2.7477,-2.7471,-2.7448,-2.7447,-2.7447,-2.7446,0,-2.7494,-2.7474,-2.751,-2.7498,-2.7496,-2.7526,-2.7516,-2.7537,-2.7525,-2.7552,-2.7557,-2.7538,-2.7558,-2.7538,-2.7556,-2.7545,-2.7599,-2.7585,-2.7599,-2.7596,-2.7641,-2.7638,-2.7785,-2.7805,-2.7661,-2.7662,-2.7663,0,-2.7556,-2.7582,-2.7574,-2.7585,-2.7584,-2.7603,-2.7613,-2.7586,-2.7597,-2.76,-2.7622,-2.7639,-2.7652,-2.7688,-2.7676,-2.7692,-2.7679,-2.773,-2.7681,-2.769,-2.7682,-2.7681,-2.7685,-2.774,-2.7742,-2.7743,-2.7744,0,-2.7668,-2.7657,-2.7671,-2.7683,-2.7696,-2.7704,-2.7709,-2.7721,-2.7694,-2.7709,-2.773,-2.774,-2.7761,-2.7781,-2.7794,-2.7792,-2.7765,-2.776,-2.7771,-2.778,-2.7788,-2.7787,-2.7628,-2.7756,-2.7755,-2.7754,-2.7754,-2.7753,-2.7753,-2.7775,-2.7774,-2.7792,-2.7794,-2.7801,-2.7821,-2.7812,-2.7829,-2.7844,-2.7828,-2.7855,-2.7857,-2.7871,-2.7874,-2.7896,-2.7874,-2.789,-2.7894,-2.7899,-2.7906,-2.7785,-2.7898,-2.7897,-2.7897,-2.7897,-2.7896,0,-2.7864,-2.7863,-2.788,-2.7889,-2.7905,-2.7878,-2.7884,-2.7899,-2.7923,-2.7927,-2.7941,-2.7968,-2.7988,-2.7979,-2.7997,-2.8017,-2.8005,-2.8023,-2.8021,-2.8022,-2.7923,-2.7912,-2.8032,-2.8032,-2.8032,-2.8032,-2.8032,-2.8032,-2.7924,-2.7962,-2.7952,-2.7992,-2.799,-2.8016,-2.8022,-2.803,-2.8033,-2.8065,-2.8081,-2.8075,-2.8076,-2.8094,-2.8112,-2.8109,-2.8119,-2.8141,-2.8134,-2.8042,-2.8028,-2.8016,-2.8006,-2.8143,-2.8143,-2.8231,-2.8232,-2.8233]},{"header":{"parameterUnit":"m.s-1","parameterCategory":1,"la1":30.2991,"la2":30.254,"lo1":-89.0895,"lo2":-89.0444,"dy":0.0017,"dx":0.0017,"nx":28,"ny":28,"refTime":"2023-10-23T09:00:00:Z","depth":0,"parameterNumber":3,"parameterNumberName":"V-component_of_WINDS"},"data":[0,0,0,0,0,0,0,0,0,0,0,0,0,0,0,0,0,0,0,0,0,0,0,0,0,0,0,0,0,0,0,0,0,0,0,0,0,0,0,0,0,0,0,0,0,0,0,0,0,0,0,0,0,0,0,0,0,0,1.9232,1.9232,0,1.9194,1.9194,1.9194,1.9207,1.9208,1.9209,1.9209,1.9163,1.9161,1.9159,0,0,0,0,0,0,0,0,0,0,0,0,0,1.9309,1.9308,1.9232,1.9232,1.9231,1.9194,1.9194,1.9193,1.9207,1.9208,1.9209,1.921,1.9163,1.9161,1.9159,0,0,0,0,0,0,0,0,0,0,0,0,0,1.9274,1.9307,1.9232,1.9234,1.9233,1.9195,1.9194,1.9193,1.9206,1.9208,1.9209,1.921,1.9164,1.9161,1.9158,1.9113,0,0,1.9149,1.9148,0,0,0,0,0,0,0,0,1.9276,1.9271,1.9234,1.9233,1.9233,1.9207,1.9204,1.9166,1.9206,1.9216,1.9209,1.9211,1.9176,1.9172,1.9162,1.9111,1.9109,1.9149,1.9147,1.9145,1.9145,0,0,0,0,0,0,0,1.9278,1.9272,1.9217,1.9233,1.9233,1.9234,1.923,1.9197,1.9189,1.9216,1.9217,1.9212,1.9176,1.9165,1.9161,1.9109,1.9149,1.9146,1.9144,1.9143,1.9019,1.9018,0,0,0,0,0,0,1.9282,1.9274,1.9218,1.9216,1.9258,1.9232,1.9228,1.9214,1.919,1.9187,1.9211,1.9213,1.9169,1.9164,1.9159,1.9105,1.9145,1.9143,1.9141,1.9021,1.9019,1.9018,0,0,0,0,0,0,1.9283,1.9277,1.922,1.9245,1.9238,1.9229,1.9213,1.9212,1.9201,1.9186,1.9184,1.9202,1.917,1.9163,1.9125,1.9103,1.9141,1.9138,1.9023,1.902,1.9018,1.8996,0,0,0,0,0,0,1.9286,1.9277,1.9261,1.9245,1.9237,1.9188,1.9212,1.9211,1.9197,1.9199,1.9177,1.9174,1.9171,1.913,1.9122,1.91,1.9136,1.9024,1.9022,1.9019,1.8998,1.8993,1.8989,0,0,0,0,0,1.9288,1.9255,1.926,1.9253,1.9217,1.9187,1.9182,1.9181,1.9195,1.9178,1.9169,1.9175,1.9108,1.9126,1.9117,1.9094,1.9026,1.9022,1.9019,1.9001,1.8994,1.8989,0,0,0,0,0,0,1.9265,1.9252,1.9259,1.9219,1.9205,1.9189,1.9168,1.9174,1.9152,1.9155,1.9152,1.9147,1.9108,1.9097,1.9118,1.9049,1.9068,1.9063,1.9057,1.9051,1.9046,1.9048,1.9133,0,0,0,0,0,1.9256,1.9235,1.9224,1.919,1.9183,1.9177,1.9163,1.9164,1.9147,1.914,1.9128,1.911,1.9084,1.9067,1.9043,1.8998,1.8992,1.8977,1.8973,1.8969,1.8963,1.8938,1.8931,1.9007,1.9007,1.9007,0,0,1.9236,1.9226,1.9212,1.9185,1.9174,1.915,1.9171,1.9144,1.9126,1.9135,1.9099,1.909,1.9069,1.9027,1.9008,1.9017,1.8942,1.8965,1.8962,1.8958,1.8934,1.8927,1.8921,1.9005,1.9005,1.9005,0,0,1.9186,1.9178,1.9149,1.9138,1.9122,1.9118,1.9112,1.9096,1.9091,1.9056,1.9062,1.9039,1.8996,1.8981,1.8968,1.8915,1.892,1.8907,1.8881,1.8856,1.885,1.8845,1.8825,1.8818,1.8903,1.8903,1.8903,0,1.9162,1.9129,1.9132,1.9106,1.9093,1.9105,1.9074,1.9063,1.9038,1.9028,1.904,1.8987,1.8973,1.8928,1.8916,1.8905,1.8895,1.8909,1.8851,1.8846,1.8841,1.8822,1.8815,1.8901,1.8901,1.8902,1.8902,0,1.9099,1.9076,1.9054,1.9034,1.9019,1.899,1.8988,1.8972,1.8975,1.897,1.8933,1.8919,1.8892,1.8882,1.8882,1.8836,1.8842,1.8853,1.8872,1.8832,1.8814,1.8807,1.8899,1.89,1.89,1.8901,0,0,1.9031,1.9016,1.9008,1.8999,1.8983,1.8963,1.8936,1.8913,1.8898,1.8882,1.8857,1.8821,1.8831,1.8816,1.8816,1.8795,1.8753,1.8808,1.8807,1.8797,1.87,1.8691,1.8683,1.8758,1.8756,1.8755,1.8701,0,1.898,1.8933,1.8937,1.8892,1.887,1.8881,1.8857,1.8843,1.8838,1.8817,1.8811,1.8785,1.8801,1.8792,1.8772,1.8763,1.8733,1.8767,1.8731,1.873,1.8735,1.8674,1.8664,1.8614,1.8695,1.8693,1.8693,0,1.8912,1.8897,1.8851,1.8839,1.883,1.8808,1.8788,1.8768,1.8753,1.8751,1.8736,1.8739,1.8709,1.8731,1.8688,1.8711,1.8697,1.869,1.8688,1.8683,1.8707,1.8665,1.8598,1.859,1.8682,1.8683,1.8683,0,1.8866,1.8833,1.8802,1.8794,1.878,1.8764,1.8757,1.8744,1.873,1.8712,1.8702,1.868,1.8666,1.8648,1.8645,1.8661,1.8601,1.8623,1.8597,1.8596,1.8581,1.8582,1.8509,1.8576,1.8576,1.8576,1.8576,0,1.8807,1.8777,1.8781,1.8761,1.8728,1.8733,1.8699,1.8694,1.8682,1.866,1.8668,1.8646,1.8645,1.8622,1.8619,1.8584,1.8578,1.8574,1.8573,1.8572,1.8572,1.8561,1.8563,1.8574,1.8574,1.8575,1.8575,0,1.8748,1.875,1.8715,1.8707,1.8704,1.868,1.8671,1.8651,1.8649,1.862,1.8614,1.8608,1.8582,1.8578,1.8547,1.8545,1.8502,1.8506,1.8508,1.8507,1.8481,1.8483,1.8396,1.8385,1.8461,1.846,1.8459,0,1.8709,1.8688,1.8678,1.8665,1.8658,1.8637,1.8624,1.8627,1.8613,1.8595,1.8577,1.8553,1.8533,1.8491,1.8482,1.8458,1.846,1.8432,1.8456,1.8456,1.8458,1.8458,1.8455,1.8426,1.8425,1.8424,1.8424,0,1.864,1.8642,1.8624,1.8607,1.8593,1.8578,1.8565,1.8553,1.8555,1.8538,1.8514,1.8499,1.8469,1.8443,1.842,1.841,1.8416,1.8417,1.8409,1.8407,1.8408,1.8406,1.8493,1.8418,1.8419,1.8419,1.8419,1.842,1.8588,1.857,1.8561,1.8541,1.8532,1.852,1.8501,1.8498,1.8478,1.8456,1.8459,1.8431,1.8416,1.8386,1.8375,1.8352,1.8361,1.835,1.8347,1.8344,1.8341,1.8414,1.8348,1.8348,1.8348,1.8349,1.8349,0,1.8518,1.8514,1.8496,1.8479,1.8463,1.8474,1.8461,1.8446,1.8422,1.841,1.8392,1.8363,1.8339,1.833,1.8306,1.8289,1.8292,1.8283,1.8283,1.828,1.8335,1.8343,1.8282,1.8282,1.8282,1.8282,1.8282,1.8282,1.8479,1.8449,1.845,1.8415,1.841,1.8385,1.8377,1.8365,1.8355,1.8324,1.8306,1.8301,1.8289,1.8266,1.8244,1.8242,1.8231,1.8221,1.822,1.827,1.8277,1.8283,1.8291,1.8219,1.8219,1.8167,1.8167,1.8166]}]]